Find Starlink 32028

NORAD ID: 60095 Int'l Des: 2024-117 Owner: SPXS Country: US Constellation: starlink operational
LEOCIRCULAR

リアルタイム位置

3D地球を読み込み中...

Starlink 32028について

説明を読み込み中...

次回通過

Passes for default location (London). Set your location on the main map for personalized predictions.

高度履歴

Loading altitude history...

軌道要素

1 60095U 24117E 26126.28087422 .00000765 00000-0 37962-4 0 9994
2 60095 53.1608 129.6375 0001284 77.7338 282.3806 15.30181021105702
Epoch: May 6, 2026 • Age: 18 hours

現在のステータス

高度 475.3 km
速度 7.63 km/s
衛星直下点 15.97°N, 58.77°E
打ち上げ日 Jun 23, 2024
運用期間 1.8 years
タイプ internet

技術仕様

分類 Payload
質量 730.00 kg
乾燥質量 700.00 kg
総質量 730.00 kg
長さ 0.30 m
直径 4.10 m
スパン 29.00 m
形状 Box + pan
製造者 SPXS
バスタイプ Starlink V2M
フェーズステータス In Orbit
所有者/国 SPXS/US

Most Searched